Location: Bannatyne
(13.0833°N, 59.5333°W)
Time: 08:33:07
(UTC+00:00)

Vanguard 2 Rocket - Pass Details

Date: 23 January 2020
Orbit: 554 x 3326 km, 32.9° (Epoch: 06 April)

Event Time Altitude Azimuth Distance (km) Brightness Sun altitude
Rises 07:03:40 0° 246° (WSW) 2,903 - -47.9°
Reaches altitude 10° 07:06:05 10° 251° (WSW) 1,876 - -47.3°
Maximum altitude 07:10:00 54° 330° (NNW) 673 - -46.4°
Drops below altitude 10° 07:14:05 10° 48° (NE) 1,948 - -45.4°
Sets 07:16:39 0° 53° (NE) 3,029 - -44.8°
